Weather History for KPEQ - March, 2014

Change the Weather History Date:

Thursday, March 6, 2014

  Actual Average Record
Temperature  
Mean Temperature 52 °F -  
Max Temperature 74 °F 68 °F 91 °F (2006)
Min Temperature 29 °F 33 °F 16 °F (1948)
Degree Days  
Heating Degree Days 14    
Growing Degree Days 2 (Base 50)    
Moisture  
Dew Point 29 °F    
Average Humidity 47    
Maximum Humidity 81    
Minimum Humidity 18    
Precipitation  
Precipitation 0.00 in - - ()
Sea Level Pressure  
Sea Level Pressure 30.12 in    
Wind  
Wind Speed 3 mph (East)    
Max Wind Speed 12 mph    
Max Gust Speed -    
Visibility 10 miles    
Events      
Averages and records for this station are not official NWS values.
T = Trace of Precipitation, MM = Missing Value Source: NWS Daily Summary

Daily Weather History Graph

Daily Weather History Graph

Search for Another Location

Airport or City:

Trip Planner

Search our weather history database for the weather conditions in past years. The results will help you decide how hot, cold, wet, or windy it might be!

Date:

Astronomy

Mar. 06, 2014 Rise Set
Actual Time 7:14 AM CST 6:55 PM CST
Civil Twilight 6:50 AM CST 7:20 PM CST
Nautical Twilight 6:22 AM CST 7:48 PM CST
Astronomical Twilight 5:54 AM CST 8:16 PM CST
Moon 10:46 AM CST (3/6) No Moon Set
Length of Visible Light 12h 29m
Length of Day
11h 40m
Waxing Crescent, 32% of the Moon is Illuminated
Mar 6
Waxing Crescent
Mar 8
First Quarter
Mar 16
Full
Mar 23
Last Quarter
Mar 30
New

Hourly Weather History & Observations

Time (CST) Temp. Windchill Dew Point Humidity Pressure Visibility Wind Dir Wind Speed Gust Speed Precip Events Conditions
12:15 AM 45.5 °F - 32.5 °F 61% 30.27 in 10.0 mi Calm Calm - N/A   Clear
12:35 AM 42.8 °F 41.1 °F 31.8 °F 65% 30.27 in 10.0 mi East 3.5 mph - N/A   Clear
12:55 AM 39.7 °F - 29.7 °F 67% 30.27 in 10.0 mi Calm Calm - N/A   Clear
1:15 AM 37.8 °F - 28.6 °F 69% 30.27 in 10.0 mi Calm Calm - N/A   Clear
1:35 AM 36.7 °F - 27.9 °F 70% 30.28 in 10.0 mi Calm Calm - N/A   Clear
1:55 AM 36.0 °F - 27.9 °F 72% 30.28 in 10.0 mi Calm Calm - N/A   Clear
2:15 AM 36.3 °F - 27.7 °F 71% 30.28 in 10.0 mi Calm Calm - N/A   Clear
2:35 AM 35.6 °F - 27.5 °F 72% 30.28 in 10.0 mi Calm Calm - N/A   Clear
2:55 AM 37.6 °F 35.1 °F 29.3 °F 72% 30.27 in 10.0 mi North 3.5 mph - N/A   Clear
3:15 AM 36.9 °F - 28.9 °F 73% 30.27 in 10.0 mi Calm Calm - N/A   Clear
3:35 AM 35.4 °F 32.6 °F 27.5 °F 73% 30.26 in 10.0 mi NW 3.5 mph - N/A   Clear
3:55 AM 34.0 °F 28.8 °F 27.1 °F 76% 30.27 in 10.0 mi NNW 5.8 mph - N/A   Clear
4:15 AM 34.7 °F 31.8 °F 27.7 °F 76% 30.26 in 10.0 mi NNW 3.5 mph - N/A   Clear
4:35 AM 33.8 °F 29.6 °F 27.0 °F 76% 30.26 in 10.0 mi North 4.6 mph - N/A   Clear
4:55 AM 34.0 °F - 27.1 °F 76% 30.26 in 10.0 mi Calm Calm - N/A   Clear
5:15 AM 33.8 °F - 26.4 °F 74% 30.26 in 10.0 mi Calm Calm - N/A   Clear
5:35 AM 32.5 °F 29.3 °F 25.9 °F 76% 30.26 in 10.0 mi NW 3.5 mph - N/A   Clear
5:55 AM 32.0 °F 27.5 °F 25.3 °F 76% 30.26 in 10.0 mi NNW 4.6 mph - N/A   Clear
6:15 AM 32.2 °F 28.9 °F 26.2 °F 79% 30.26 in 10.0 mi North 3.5 mph - N/A   Clear
6:35 AM 32.0 °F - 25.5 °F 77% 30.26 in 10.0 mi Calm Calm - N/A   Clear
6:55 AM 32.0 °F - 26.2 °F 79% 30.26 in 10.0 mi Calm Calm - N/A   Clear
7:15 AM 29.3 °F 24.3 °F 23.9 °F 80% 30.26 in 10.0 mi SW 4.6 mph - N/A   Clear
7:35 AM 29.3 °F 25.6 °F 24.1 °F 81% 30.26 in 10.0 mi WSW 3.5 mph - N/A   Clear
7:55 AM 30.9 °F - 25.0 °F 79% 30.25 in 10.0 mi Calm Calm - N/A   Clear
8:15 AM 33.3 °F - 27.0 °F 78% 30.26 in 10.0 mi Calm Calm - N/A   Clear
8:35 AM 36.5 °F - 28.6 °F 73% 30.26 in 10.0 mi Calm Calm - N/A   Clear
8:55 AM 40.1 °F - 31.3 °F 71% 30.25 in 10.0 mi Calm Calm - N/A   Clear
9:15 AM 42.4 °F - 32.0 °F 67% 30.25 in 10.0 mi Calm Calm - N/A   Clear
9:35 AM 45.1 °F - 33.1 °F 63% 30.25 in 10.0 mi Calm Calm - N/A   Clear
9:55 AM 46.9 °F - 33.4 °F 59% 30.25 in 10.0 mi ESE 3.5 mph - N/A   Clear
10:15 AM 48.2 °F - 33.8 °F 58% 30.24 in 10.0 mi Calm Calm - N/A   Clear
10:35 AM 50.5 °F - 34.3 °F 54% 30.24 in 10.0 mi Calm Calm - N/A   Clear
10:55 AM 51.8 °F - 34.0 °F 51% 30.24 in 10.0 mi SE 3.5 mph - N/A   Clear
11:15 AM 53.8 °F - 34.2 °F 47% 30.23 in 10.0 mi SE 4.6 mph - N/A   Clear
11:35 AM 55.6 °F - 34.0 °F 44% 30.22 in 10.0 mi Calm Calm - N/A   Clear
11:55 AM 58.1 °F - 34.9 °F 42% 30.21 in 10.0 mi ENE 3.5 mph - N/A   Clear
12:15 PM 58.8 °F - 33.6 °F 39% 30.19 in 10.0 mi South 5.8 mph - N/A   Clear
12:35 PM 62.1 °F - 32.9 °F 34% 30.17 in 10.0 mi South 5.8 mph - N/A   Clear
12:55 PM 63.5 °F - 32.0 °F 31% 30.15 in 7.0 mi SE 4.6 mph - N/A   Clear
1:15 PM 66.0 °F - 32.0 °F 28% 30.13 in 10.0 mi South 6.9 mph - N/A   Clear
1:35 PM 66.9 °F - 31.3 °F 27% 30.11 in 10.0 mi SE 4.6 mph - N/A   Clear
1:55 PM 68.9 °F - 30.9 °F 24% 30.09 in 10.0 mi SSE 8.1 mph - N/A   Clear
2:15 PM 69.1 °F - 30.7 °F 24% 30.07 in 10.0 mi South 9.2 mph - N/A   Clear
2:35 PM 70.2 °F - 30.6 °F 23% 30.05 in 10.0 mi SE 8.1 mph - N/A   Clear
2:55 PM 72.0 °F - 30.4 °F 21% 30.04 in 10.0 mi East 8.1 mph - N/A   Clear
3:15 PM 72.5 °F - 29.8 °F 21% 30.02 in 10.0 mi ESE 6.9 mph - N/A   Clear
3:35 PM 72.5 °F - 29.3 °F 20% 30.00 in 10.0 mi ESE 11.5 mph - N/A   Clear
3:55 PM 72.9 °F - 28.4 °F 19% 29.99 in 10.0 mi Calm Calm - N/A   Clear
4:15 PM 74.8 °F - 28.4 °F 18% 29.98 in 10.0 mi ESE 11.5 mph - N/A   Clear
4:35 PM 74.8 °F - 28.0 °F 18% 29.97 in 10.0 mi ESE 6.9 mph - N/A   Clear
4:55 PM 74.3 °F - 27.7 °F 18% 29.97 in 10.0 mi East 4.6 mph - N/A   Clear
5:15 PM 74.8 °F - 28.4 °F 18% 29.96 in 10.0 mi East 8.1 mph - N/A   Clear
5:35 PM 74.7 °F - 28.4 °F 18% 29.95 in 10.0 mi East 9.2 mph - N/A   Clear
5:55 PM 73.4 °F - 28.2 °F 19% 29.95 in 10.0 mi East 9.2 mph - N/A   Clear
6:15 PM 72.3 °F - 27.5 °F 19% 29.95 in 10.0 mi East 9.2 mph - N/A   Clear
6:35 PM 70.2 °F - 28.0 °F 21% 29.94 in 10.0 mi ENE 8.1 mph - N/A   Clear
6:55 PM 67.3 °F - 27.9 °F 23% 29.94 in 10.0 mi ENE 6.9 mph - N/A   Clear
7:15 PM 65.3 °F - 27.7 °F 24% 29.93 in 10.0 mi NNE 5.8 mph - N/A   Clear
7:35 PM 64.4 °F - 27.0 °F 24% 29.93 in 10.0 mi NE 6.9 mph - N/A   Clear
7:55 PM 63.5 °F - 26.6 °F 25% 29.93 in 10.0 mi NE 5.8 mph - N/A   Clear
8:15 PM 62.2 °F - 26.6 °F 26% 29.94 in 10.0 mi NE 8.1 mph - N/A   Clear
8:35 PM 61.0 °F - 26.6 °F 27% 29.93 in 10.0 mi ENE 8.1 mph - N/A   Clear
8:55 PM 59.0 °F - 26.4 °F 29% 29.93 in 10.0 mi ENE 6.9 mph - N/A   Clear
9:15 PM 57.6 °F - 25.7 °F 29% 29.93 in 10.0 mi East 5.8 mph - N/A   Clear
9:35 PM 55.8 °F - 25.0 °F 31% 29.93 in 10.0 mi East 6.9 mph - N/A   Clear
9:55 PM 54.5 °F - 24.8 °F 32% 29.93 in 10.0 mi East 4.6 mph - N/A   Clear
10:15 PM 52.5 °F - 24.1 °F 33% 29.92 in 10.0 mi East 5.8 mph - N/A   Clear
10:35 PM 51.8 °F - 23.7 °F 33% 29.93 in 10.0 mi SSW 4.6 mph - N/A   Clear
10:55 PM 53.2 °F - 24.8 °F 33% 29.93 in 10.0 mi SSW 5.8 mph - N/A   Clear
11:15 PM 52.0 °F - 26.6 °F 37% 29.93 in 10.0 mi WSW 6.9 mph - N/A   Clear
11:35 PM 51.8 °F - 25.5 °F 36% 29.92 in 10.0 mi WSW 5.8 mph - N/A   Clear
11:55 PM 51.6 °F - 25.3 °F 36% 29.92 in 10.0 mi Calm Calm - N/A   Clear